Location: Drocourt
(49.0571°N, 1.7669°E)
Time: 00:26:54
(UTC+00:00)

Cosmos 1758 Rocket - Pass Details

Date: 09 February 2023
Orbit: 601 x 634 km, 82.5° (Epoch: 21 March)

Event Time Altitude Azimuth Distance (km) Brightness Sun altitude
Rises 19:03:17 0° 188° (S) 2,854 7.1 -20.1°
Reaches altitude 10° 19:05:28 10° 188° (S) 1,959 6.2 -20.5°
Maximum altitude 19:09:49 90° 116° (ESE) 622 3.4 -21.2°
Drops below altitude 10° 19:14:15 10° 10° (N) 1,996 6.1 -21.9°
Sets 19:16:30 0° 10° (N) 2,913 6.9 -22.3°
